Location: D�derode
(51.8092°N, 10.1065°E)
Time: 21:30:03
(UTC+00:00)

Cosmos 2263 - Pass Details

Date: 01 December 2020
Orbit: 833 x 864 km, 70.9° (Epoch: 24 January)

Event Time Altitude Azimuth Distance (km) Brightness Sun altitude
Rises 17:11:03 0° 328° (NNW) 3,396 7.6 -17.4°
Reaches altitude 10° 17:13:30 10° 329° (NNW) 2,456 6.8 -17.8°
Maximum altitude 17:19:09 87° 240° (WSW) 842 4.2 -18.6°
Drops below altitude 10° 17:24:45 10° 153° (SSE) 2,439 6.4 -19.5°
Sets 17:27:10 0° 153° (SSE) 3,371 7.2 -19.8°
